Watertown, SD

3:00 AM CDT on July 25, 2017 (GMT -0500)
Watertown Municipal

Weather History for KATY - January, 2014

Change the Weather History Date:

Thursday, January 16, 2014

  Actual Average Record
Temperature  
Mean Temperature 19 °F 12 °F  
Max Temperature 35 °F 22 °F 45 °F (1974)
Min Temperature 2 °F 3 °F -26 °F (1977)
Degree Days  
Heating Degree Days 46 53  
Month to date heating degree days 900 841  
Since 1 July heating degree days 4498 4300  
Cooling Degree Days 0 0  
Month to date cooling degree days 0 0  
Year to date cooling degree days 0 0  
Moisture  
Dew Point 10 °F    
Average Humidity 82    
Maximum Humidity 100    
Minimum Humidity 64    
Precipitation  
Precipitation T in 0.02 in 0.40 in (1911)
Month to date precipitation 0.05 0.27  
Year to date precipitation 0.05 0.27  
Snow  
Snow 0.00 in - - ()
Month to date snowfall 0.8  
Since 1 July snowfall 12.2  
Snow Depth 8.00 in    
Sea Level Pressure  
Sea Level Pressure 29.77 in    
Wind  
Wind Speed 27 mph (NNW)    
Max Wind Speed 46 mph    
Max Gust Speed 53 mph    
Visibility 3 miles    
Events Fog , Snow    
T = Trace of Precipitation, MM = Missing Value Source: NWS Daily Summary

Daily Weather History Graph

Daily Weather History Graph

Search for Another Location

Airport or City:

Trip Planner

Search our weather history database for the weather conditions in past years. The results will help you decide how hot, cold, wet, or windy it might be!

Date:

Astronomy

Jan. 16, 2014 Rise Set
Actual Time 8:02 AM CST 5:14 PM CST
Civil Twilight 7:29 AM CST 5:47 PM CST
Nautical Twilight 6:53 AM CST 6:23 PM CST
Astronomical Twilight 6:18 AM CST 6:58 PM CST
Moon 6:12 PM CST (1/16) 7:52 AM CST (1/16)
Length of Visible Light 10h 17m
Length of Day
9h 12m
Full, 100% of the Moon is Illuminated
Jan 16
Full
Jan 23
Last Quarter
Jan 30
New
Feb 6
First Quarter
Feb 14
Full

Hourly Weather History & Observations

Time (CST) Temp. Windchill Dew Point Humidity Pressure Visibility Wind Dir Wind Speed Gust Speed Precip Events Conditions
12:53 AM 35.1 °F 22.7 °F 26.1 °F 70% 29.55 in 10.0 mi WNW 25.3 mph 38.0 mph N/A   Overcast
1:53 AM 33.1 °F 19.8 °F 28.0 °F 82% 29.55 in 3.0 mi WNW 26.5 mph 38.0 mph 0.00 in Snow Light Snow
1:55 AM 33.8 °F 21.0 °F 28.4 °F 81% 29.48 in 2.5 mi WNW 25.3 mph 38.0 mph 0.00 in Snow Light Snow
2:03 AM 32.0 °F 19.2 °F 28.4 °F 87% 29.48 in 1.2 mi WNW 23.0 mph 36.8 mph 0.00 in Snow Light Snow
2:16 AM 32.0 °F 18.9 °F 28.4 °F 87% 29.48 in 0.8 mi WNW 24.2 mph 34.5 mph 0.00 in Snow Light Snow
2:31 AM 30.2 °F 17.1 °F 30.2 °F 100% 29.49 in 1.0 mi WNW 21.9 mph 32.2 mph 0.00 in Snow Light Snow
2:53 AM 30.9 °F 17.5 °F 30.0 °F 96% 29.56 in 0.8 mi NW 24.2 mph 35.7 mph 0.00 in Snow Light Snow
3:05 AM 30.2 °F 16.8 °F 30.2 °F 100% 29.50 in 1.0 mi NW 23.0 mph 32.2 mph 0.00 in Snow Light Snow
3:17 AM 30.2 °F 15.4 °F 30.2 °F 100% 29.50 in 0.8 mi NW 28.8 mph 38.0 mph 0.00 in Snow Light Snow
3:21 AM 30.2 °F 15.2 °F 28.4 °F 93% 29.50 in 1.0 mi WNW 29.9 mph 43.7 mph 0.00 in Snow Light Snow
3:33 AM 30.2 °F 15.4 °F 28.4 °F 93% 29.50 in 1.0 mi NW 28.8 mph 39.1 mph 0.00 in Snow Light Snow
3:46 AM 30.2 °F 15.4 °F 28.4 °F 93% 29.51 in 0.8 mi NW 28.8 mph 40.3 mph 0.00 in Snow Light Snow
3:53 AM 28.9 °F 15.1 °F 28.0 °F 96% 29.57 in 0.8 mi NW 23.0 mph 40.3 mph 0.00 in Snow Light Snow
3:58 AM 28.4 °F 14.1 °F 28.4 °F 100% 29.50 in 1.5 mi NW 24.2 mph 33.4 mph 0.00 in Snow Light Snow
4:05 AM 30.2 °F 16.2 °F 26.6 °F 86% 29.51 in 3.0 mi NW 25.3 mph 34.5 mph 0.00 in Snow Light Snow
4:28 AM 28.4 °F 13.3 °F 24.8 °F 86% 29.53 in 2.0 mi NW 27.6 mph 40.3 mph 0.00 in Snow Light Snow
4:41 AM 28.4 °F 13.8 °F 24.8 °F 86% 29.53 in 5.0 mi NW 25.3 mph 35.7 mph 0.00 in   Haze
4:53 AM 28.9 °F 13.5 °F 23.0 °F 78% 29.60 in 5.0 mi NW 29.9 mph 36.8 mph 0.00 in   Haze
5:39 AM 26.6 °F 10.0 °F 23.0 °F 86% 29.57 in 2.5 mi NW 31.1 mph 39.1 mph 0.00 in   Overcast
5:53 AM 27.0 °F 10.5 °F 21.9 °F 81% 29.64 in 3.0 mi NNW 31.1 mph 42.6 mph 0.00 in   Haze
6:53 AM 27.0 °F 11.3 °F 19.9 °F 75% 29.64 in 10.0 mi NNW 27.6 mph 36.8 mph 0.00 in   Overcast
7:53 AM 26.1 °F 10.7 °F 19.0 °F 75% 29.65 in 10.0 mi NW 25.3 mph 32.2 mph N/A   Overcast
8:53 AM 25.0 °F 10.6 °F 18.0 °F 75% 29.66 in 10.0 mi NNW 20.7 mph 29.9 mph N/A   Overcast
9:21 AM 24.8 °F 11.1 °F 19.4 °F 80% 29.62 in 3.0 mi NNW 18.4 mph 26.5 mph 0.00 in Snow Light Snow
9:29 AM 24.8 °F 9.3 °F 19.4 °F 80% 29.62 in 4.0 mi NNW 24.2 mph 29.9 mph 0.00 in Snow Light Snow
9:49 AM 23.0 °F 4.9 °F 17.6 °F 80% 29.63 in 1.8 mi NNW 32.2 mph 39.1 mph 0.00 in Snow Light Snow
9:53 AM 23.0 °F 4.9 °F 19.0 °F 85% 29.69 in 1.0 mi NNW 32.2 mph 39.1 mph 0.00 in Snow Light Snow
10:00 AM 21.2 °F 2.7 °F 19.4 °F 93% 29.63 in 0.5 mi NNW 31.1 mph 40.3 mph 0.00 in Fog , Snow Snow
10:15 AM 21.2 °F 2.7 °F 17.6 °F 86% 29.65 in 0.8 mi NNW 31.1 mph 38.0 mph 0.00 in Snow Light Snow
10:23 AM 19.4 °F 0.5 °F 15.8 °F 86% 29.65 in 0.2 mi North 29.9 mph 44.9 mph 0.00 in Fog , Snow Snow
10:39 AM 17.6 °F -0.6 °F 15.8 °F 93% 29.67 in 0.8 mi North 25.3 mph - 0.00 in Snow Light Snow
10:46 AM 17.6 °F -1.0 °F 12.2 °F 79% 29.69 in 1.0 mi NNE 26.5 mph 34.5 mph 0.00 in Snow Light Snow
10:53 AM 15.1 °F -5.0 °F 10.9 °F 84% 29.77 in 0.8 mi North 28.8 mph 35.7 mph 0.00 in Snow Light Snow
11:26 AM 10.4 °F -11.7 °F 6.8 °F 85% 29.75 in 0.5 mi NNW 29.9 mph 39.1 mph 0.00 in Fog , Snow Light Snow
11:35 AM 10.4 °F -11.7 °F 6.8 °F 85% 29.75 in 0.8 mi NNW 29.9 mph 39.1 mph 0.00 in   Overcast
11:42 AM 10.4 °F -13.0 °F 5.0 °F 79% 29.76 in 1.5 mi NNW 34.5 mph 42.6 mph 0.00 in Snow Light Snow
11:53 AM 9.0 °F -16.1 °F 3.9 °F 80% 29.85 in 0.5 mi NNW 39.1 mph 49.5 mph 0.00 in Snow Snow
12:06 PM 6.8 °F -19.9 °F -0.4 °F 72% 29.78 in 0.2 mi North 42.6 mph 52.9 mph 0.00 in   Overcast
12:17 PM 6.8 °F -17.3 °F 1.4 °F 79% 29.79 in 0.2 mi NNW 32.2 mph 44.9 mph 0.00 in Snow Heavy Snow
12:37 PM 5.0 °F -22.1 °F -0.4 °F 78% 29.80 in 0.8 mi NNW 41.4 mph 51.8 mph 0.00 in Snow Light Snow
12:46 PM 5.0 °F -20.4 °F -0.4 °F 78% 29.80 in 1.2 mi NNW 34.5 mph 44.9 mph 0.00 in Snow Light Snow
12:53 PM 5.0 °F -19.0 °F -0.0 °F 80% 29.89 in 1.5 mi NNW 29.9 mph 44.9 mph 0.00 in Snow Light Snow
1:08 PM 5.0 °F -18.3 °F -0.4 °F 78% 29.81 in 2.5 mi NNW 27.6 mph 44.9 mph 0.00 in Snow Light Snow
1:14 PM 5.0 °F -16.7 °F -0.4 °F 78% 29.81 in 1.2 mi NNW 23.0 mph 35.7 mph 0.00 in Snow Light Snow
1:26 PM 5.0 °F -20.4 °F -0.4 °F 78% 29.81 in 2.0 mi NNW 34.5 mph 41.4 mph 0.00 in Snow Light Snow
1:40 PM 5.0 °F -19.7 °F -0.4 °F 78% 29.82 in 1.2 mi NNW 32.2 mph 42.6 mph 0.00 in Snow Light Snow
1:53 PM 5.0 °F -20.7 °F -2.0 °F 73% 29.92 in 2.0 mi NNW 35.7 mph 47.2 mph 0.00 in Snow Light Snow
2:14 PM 3.2 °F -22.2 °F -2.2 °F 78% 29.84 in 3.0 mi NNW 32.2 mph 43.7 mph 0.00 in Snow Light Snow
2:22 PM 3.2 °F -20.7 °F -2.2 °F 78% 29.85 in 1.5 mi NNW 27.6 mph 38.0 mph 0.00 in Snow Light Snow
2:24 PM 3.2 °F -19.9 °F -0.4 °F 85% 29.85 in 0.8 mi NNW 25.3 mph 38.0 mph 0.00 in Snow Light Snow
2:35 PM 3.2 °F -22.9 °F -2.2 °F 78% 29.85 in 1.5 mi NNW 34.5 mph 43.7 mph 0.00 in Snow Light Snow
2:37 PM 3.2 °F -21.8 °F -2.2 °F 78% 29.85 in 3.0 mi NNW 31.1 mph 43.7 mph 0.00 in   Overcast
2:53 PM 3.9 °F -21.2 °F -2.0 °F 76% 29.95 in 3.0 mi NNW 32.2 mph 46.0 mph 0.00 in   Haze
3:10 PM 3.2 °F -21.5 °F -0.4 °F 85% 29.87 in 1.8 mi NNW 29.9 mph 38.0 mph 0.00 in Snow Light Snow
3:18 PM 5.0 °F -20.1 °F -0.4 °F 78% 29.88 in 3.0 mi NNW 33.4 mph 42.6 mph 0.00 in   Haze
3:47 PM 5.0 °F -19.4 °F -0.4 °F 78% 29.89 in 1.8 mi NNW 31.1 mph 40.3 mph 0.00 in Snow Light Snow
3:51 PM 5.0 °F -17.9 °F -0.4 °F 78% 29.89 in 0.8 mi NNW 26.5 mph 40.3 mph 0.00 in Snow Light Snow
3:53 PM 5.0 °F -18.7 °F 1.0 °F 84% 29.99 in 0.8 mi NNW 28.8 mph 36.8 mph 0.00 in Snow Light Snow
4:03 PM 6.8 °F -17.3 °F 1.4 °F 79% 29.90 in 1.2 mi NNW 32.2 mph 42.6 mph 0.00 in Snow Light Snow
4:08 PM 6.8 °F -15.5 °F -0.4 °F 72% 29.90 in 2.0 mi NNW 26.5 mph 42.6 mph 0.00 in Snow Light Snow
4:19 PM 6.8 °F -17.3 °F 1.4 °F 79% 29.91 in 1.2 mi NNW 32.2 mph 42.6 mph 0.00 in   Haze
4:24 PM 6.8 °F -15.5 °F 1.4 °F 79% 29.91 in 1.8 mi NNW 26.5 mph 42.6 mph 0.00 in   Haze
4:28 PM 6.8 °F -16.2 °F 1.4 °F 79% 29.92 in 3.0 mi NNW 28.8 mph 42.6 mph 0.00 in   Haze
4:34 PM 6.8 °F -16.6 °F 1.4 °F 79% 29.92 in 2.5 mi NNW 29.9 mph 38.0 mph 0.00 in   Haze
4:42 PM 6.8 °F -16.6 °F 1.4 °F 79% 29.92 in 1.5 mi NNW 29.9 mph 40.3 mph 0.00 in Snow Light Snow
4:50 PM 6.8 °F -16.2 °F 1.4 °F 79% 29.93 in 3.0 mi NNW 28.8 mph 44.9 mph 0.00 in   Haze
4:53 PM 6.1 °F -17.6 °F 1.0 °F 80% 30.02 in 4.0 mi NNW 29.9 mph 39.1 mph 0.00 in   Haze
5:07 PM 6.8 °F -15.5 °F 1.4 °F 79% 29.94 in 1.8 mi NNW 26.5 mph 35.7 mph N/A   Overcast
5:27 PM 6.8 °F -16.6 °F 3.2 °F 85% 29.94 in 1.2 mi NNW 29.9 mph 41.4 mph N/A   Overcast
5:31 PM 6.8 °F -16.9 °F 1.4 °F 79% 29.95 in 2.0 mi NNW 31.1 mph 41.4 mph N/A   Haze
5:36 PM 6.8 °F -14.7 °F 1.4 °F 79% 29.95 in 5.0 mi NNW 24.2 mph 40.3 mph N/A   Haze
5:53 PM 7.0 °F -14.9 °F 3.0 °F 84% 30.05 in 4.0 mi NNW 25.3 mph 34.5 mph N/A   Overcast
6:36 PM 8.6 °F -12.7 °F 1.4 °F 73% 29.97 in 10.0 mi NNW 25.3 mph 36.8 mph N/A   Scattered Clouds
6:53 PM 7.0 °F -14.5 °F -2.0 °F 67% 30.07 in 10.0 mi NNW 24.2 mph 33.4 mph N/A   Clear
7:53 PM 6.1 °F -17.2 °F -2.0 °F 69% 30.09 in 10.0 mi NNW 28.8 mph - N/A   Clear
8:53 PM 5.0 °F -17.9 °F -4.0 °F 66% 30.12 in 10.0 mi NNW 26.5 mph 39.1 mph N/A   Clear
9:53 PM 3.9 °F -18.1 °F -5.1 °F 66% 30.14 in 10.0 mi NNW 23.0 mph 32.2 mph N/A   Clear
10:53 PM 3.0 °F -17.3 °F -6.0 °F 66% 30.16 in 10.0 mi NNW 18.4 mph - N/A   Clear
11:53 PM 1.9 °F -19.8 °F -7.1 °F 66% 30.17 in 10.0 mi NNW 20.7 mph - N/A   Clear